CW1367 Weather Reports


time (UTC)temp
F
wind
direction
speed
knots
gust
knots
rain 1hr
in
rain 24hr
in
rain mn
in
humidity
%
barometer
mb
20260504215128 74 236 7.8 18.2 0.00 0.00 0.00 30 1007.0
20260504214628 74 219 8.7 18.2 0.00 0.00 0.00 30 1007.0
20260504214130 74 223 7.0 13.0 0.00 0.00 0.00 30 1007.1
20260504213629 74 238 5.2 13.0 0.00 0.00 0.00 30 1007.1
20260504213129 74 300 7.0 16.5 0.00 0.00 0.00 31 1007.2
20260504212628 74 225 8.7 16.5 0.00 0.00 0.00 30 1007.1
20260504212129 74 189 7.0 13.9 0.00 0.00 0.00 30 1007.1
20260504211629 74 254 7.8 14.8 0.00 0.00 0.00 30 1007.0
20260504211411 75 253 7.0 14.8 0.00 0.00 0.00 29 1007.0
20260504210629 75 200 6.1 11.3 0.00 0.00 0.00 30 1007.1
20260504210129 74 271 5.2 11.3 0.00 0.00 0.00 30 1007.1
20260504205628 74 222 6.1 14.8 0.00 0.00 0.00 30 1007.1
20260504205416 74 231 7.0 15.6 0.00 0.00 0.00 30 1007.2
20260504204915 74 212 7.8 16.5 0.00 0.00 0.00 31 1007.2
20260504204129 74 240 7.8 16.5 0.00 0.00 0.00 30 1007.1
20260504203628 74 182 7.0 14.8 0.00 0.00 0.00 29 1007.0
20260504203129 75 213 6.1 14.8 0.00 0.00 0.00 30 1007.1
20260504202913 74 221 6.1 12.2 0.00 0.00 0.00 30 1007.0
20260504202129 74 292 7.0 13.0 0.00 0.00 0.00 31 1007.2
20260504201629 74 220 7.0 15.6 0.00 0.00 0.00 30 1007.3
20260504201130 74 192 7.8 15.6 0.00 0.00 0.00 30 1007.2
20260504200630 74 223 8.7 15.6 0.00 0.00 0.00 30 1007.3
20260504200206 74 213 7.8 16.5 0.00 0.00 0.00 31 1007.2
20260504200150 74 257 7.8 15.6 0.00 0.00 0.00 31 1007.3
20260504195128 74 165 9.6 16.5 0.00 0.00 0.00 31 1007.5
20260504194629 74 252 7.8 15.6 0.00 0.00 0.00 31 1007.5
20260504194134 74 208 6.1 13.0 0.00 0.00 0.00 31 1007.4
20260504193632 74 187 6.1 13.9 0.00 0.00 0.00 31 1007.5
20260504193409 74 265 6.1 13.9 0.00 0.00 0.00 31 1007.6
20260504192630 74 210 7.0 15.6 0.00 0.00 0.00 31 1007.6
20260504192412 74 239 7.0 15.6 0.00 0.00 0.00 31 1007.8
20260504191628 74 189 7.8 14.8 0.00 0.00 0.00 32 1007.9
20260504191128 74 226 8.7 17.4 0.00 0.00 0.00 31 1007.9
20260504190910 74 230 7.8 17.4 0.00 0.00 0.00 31 1007.8
20260504190411 74 254 7.8 16.5 0.00 0.00 0.00 33 1008.0
20260504185629 74 250 8.7 18.2 0.00 0.00 0.00 32 1008.3
20260504185128 74 261 8.7 18.2 0.00 0.00 0.00 32 1008.4
20260504184630 73 200 8.7 15.6 0.00 0.00 0.00 33 1008.3
20260504184410 73 226 7.8 14.8 0.00 0.00 0.00 33 1008.4
20260504183632 73 232 7.8 20.9 0.00 0.00 0.00 33 1008.6
20260504183131 73 173 8.7 20.9 0.00 0.00 0.00 32 1008.4
20260504182631 73 210 8.7 17.4 0.00 0.00 0.00 32 1008.5
20260504182131 73 196 7.8 17.4 0.00 0.00 0.00 32 1008.6
20260504181630 72 234 7.8 16.5 0.00 0.00 0.00 32 1008.6
20260504181129 73 215 8.7 16.5 0.00 0.00 0.00 33 1008.7
20260504180629 72 196 8.7 18.2 0.00 0.00 0.00 32 1008.8
20260504180129 72 211 7.8 18.2 0.00 0.00 0.00 33 1008.8
20260504175629 72 202 7.8 15.6 0.00 0.00 0.00 32 1008.8
20260504175129 72 200 8.7 19.1 0.00 0.00 0.00 33 1008.8
20260504174913 72 162 8.7 19.1 0.00 0.00 0.00 33 1009.0
20260504174413 72 248 9.6 17.4 0.00 0.00 0.00 33 1009.1
20260504173630 71 189 9.6 16.5 0.00 0.00 0.00 33 1009.0
20260504173128 71 158 8.7 15.6 0.00 0.00 0.00 32 1009.0
20260504172629 71 234 7.8 15.6 0.00 0.00 0.00 34 1009.3
20260504172128 71 230 7.0 15.6 0.00 0.00 0.00 34 1009.2
20260504171629 71 279 6.1 13.0 0.00 0.00 0.00 35 1009.3
20260504171130 71 238 6.1 13.0 0.00 0.00 0.00 34 1009.3
20260504170941 71 247 8.7 16.5 0.00 0.00 0.00 34 1009.6
20260504170936 71 186 6.1 16.5 0.00 0.00 0.00 33 1009.4
20260504160130 69 220 7.0 15.6 0.00 0.00 0.00 35 1010.2
20260504151131 67 239 7.8 16.5 0.00 0.00 0.00 36 1010.8
20260504150629 67 192 9.6 17.4 0.00 0.00 0.00 38 1010.8
20260504150129 67 231 9.6 17.4 0.00 0.00 0.00 35 1010.8
20260504140629 64 202 9.6 18.2 0.00 0.00 0.00 41 1011.1
20260504140130 64 240 11.3 20.9 0.00 0.00 0.00 40 1011.1
20260504130119 61 244 6.1 16.5 0.00 0.00 0.00 47 1011.7
20260504120109 56 238 7.0 12.2 0.00 0.00 0.00 59 1011.9
20260504110602 53 211 7.0 16.5 0.00 0.00 0.00 62 1012.1
20260504110348 52 240 7.8 16.5 0.00 0.00 0.00 62 1012.2
20260504100529 51 205 5.2 10.4 0.00 0.00 0.00 58 1012.0
20260504081529 54 241 6.1 12.2 0.00 0.00 0.00 47 1011.7
20260504081029 54 237 5.2 11.3 0.00 0.00 0.00 46 1011.7
20260504080811 54 191 5.2 11.3 0.00 0.00 0.00 46 1011.7
20260504050530 55 251 5.2 12.2 0.00 0.00 0.00 42 1011.0
20260504045528 55 224 4.3 13.0 0.00 0.00 0.00 42 1011.0
20260504045030 55 249 5.2 11.3 0.00 0.00 0.00 42 1011.0
20260504044530 56 244 5.2 13.0 0.00 0.00 0.00 42 1011.0
20260504044029 55 210 6.1 13.0 0.00 0.00 0.00 42 1011.0
20260504043531 56 212 6.1 12.2 0.00 0.00 0.00 42 1010.9
20260504043315 56 236 5.2 10.4 0.00 0.00 0.00 42 1010.9
20260504042530 56 258 5.2 10.4 0.00 0.00 0.00 42 1010.8
20260504042029 56 225 5.2 10.4 0.00 0.00 0.00 41 1010.9
20260504041528 56 218 5.2 13.0 0.00 0.00 0.00 41 1010.8
20260504041028 56 228 5.2 13.0 0.00 0.00 0.00 41 1010.8
20260504040816 56 218 6.1 13.0 0.00 0.00 0.00 41 1010.8
20260504040030 56 227 6.1 13.0 0.00 0.00 0.00 41 1010.8
20260504035529 56 240 5.2 12.2 0.00 0.00 0.00 41 1010.6
20260504035029 56 160 5.2 11.3 0.00 0.00 0.00 41 1010.7
20260504034528 56 246 5.2 12.2 0.00 0.00 0.00 40 1010.7
20260504034028 56 207 5.2 12.2 0.00 0.00 0.00 40 1010.7
20260504033529 56 215 5.2 10.4 0.00 0.00 0.00 40 1010.7
20260504033030 56 237 5.2 9.6 0.00 0.00 0.00 40 1010.6
20260504032530 56 181 5.2 13.9 0.00 0.00 0.00 40 1010.4
20260504032030 56 241 5.2 13.9 0.00 0.00 0.00 39 1010.4
20260504031528 56 229 6.1 12.2 0.00 0.00 0.00 39 1010.5
20260504031029 57 234 6.1 12.2 0.00 0.00 0.00 39 1010.5
20260504030529 56 248 5.2 11.3 0.00 0.00 0.00 39 1010.5
20260504030030 56 228 5.2 11.3 0.00 0.00 0.00 39 1010.4
20260504025812 56 230 5.2 11.3 0.00 0.00 0.00 39 1010.4
20260504025028 56 266 4.3 11.3 0.00 0.00 0.00 39 1010.3
20260504024529 56 237 4.3 10.4 0.00 0.00 0.00 39 1010.3
20260504024029 56 196 5.2 10.4 0.00 0.00 0.00 39 1010.3
20260504023529 56 198 4.3 8.7 0.00 0.00 0.00 40 1010.5
20260504023030 55 219 3.5 8.7 0.00 0.00 0.00 40 1010.5
20260504022527 55 222 2.6 6.1 0.00 0.00 0.00 40 1010.3
20260504022016 56 239 2.6 6.1 0.00 0.00 0.00 40 1010.5
20260504021509 56 224 2.6 6.1 0.00 0.00 0.00 39 1010.5
20260504021009 56 219 2.6 5.2 0.00 0.00 0.00 39 1010.5
20260504020510 56 234 2.6 5.2 0.00 0.00 0.00 39 1010.6
20260504020007 56 246 2.6 5.2 0.00 0.00 0.00 39 1010.6
20260504015506 56 222 2.6 4.3 0.00 0.00 0.00 39 1010.5
20260504015034 55 206 2.6 5.2 0.00 0.00 0.00 39 1010.5
20260504015025 55 211 1.7 5.2 0.00 0.00 0.00 39 1010.4
20260504014004 55 206 1.7 4.3 0.00 0.00 0.00 39 1010.4
20260504013747 55 223 1.7 3.5 0.00 0.00 0.00 39 1010.4
20260504013000 56 209 1.7 4.3 0.00 0.00 0.00 38 1010.3
20260504012502 56 215 1.7 5.2 0.00 0.00 0.00 38 1010.3
20260504012001 56 210 2.6 5.2 0.00 0.00 0.00 38 1010.2
20260504011501 56 234 2.6 6.1 0.00 0.00 0.00 38 1010.2
20260504011001 56 223 2.6 6.1 0.00 0.00 0.00 38 1010.1
20260504010748 56 214 2.6 5.2 0.00 0.00 0.00 38 1010.0
20260504010247 56 233 2.6 4.3 0.00 0.00 0.00 37 1010.0
20260504005501 56 232 2.6 4.3 0.00 0.00 0.00 37 1010.0
20260504005246 56 247 1.7 4.3 0.00 0.00 0.00 36 1009.9
20260504004501 57 233 1.7 4.3 0.00 0.00 0.00 36 1009.8
20260504004001 57 237 1.7 4.3 0.00 0.00 0.00 36 1009.8
20260504003504 57 236 0.9 3.5 0.00 0.00 0.00 35 1009.7
20260504003005 58 230 0.9 3.5 0.00 0.00 0.00 35 1009.6
20260504002502 58 236 1.7 3.5 0.00 0.00 0.00 34 1009.5
20260504002002 58 213 1.7 3.5 0.00 0.00 0.00 34 1009.4
20260504001502 58 241 1.7 4.3 0.00 0.00 0.00 34 1009.4
20260504001003 59 237 1.7 5.2 0.00 0.00 0.00 33 1009.2
20260504000502 59 248 2.6 5.2 0.00 0.00 0.00 33 1009.0
20260504000002 59 227 2.6 7.8 0.00 0.00 0.00 32 1009.0
20260503235502 59 241 1.7 7.8 0.00 0.00 0.00 32 1009.0
20260503235002 59 221 1.7 5.2 0.00 0.00 0.00 32 1009.0
20260503234502 60 289 2.6 7.8 0.00 0.00 0.00 32 1009.0
20260503234003 60 266 2.6 8.7 0.00 0.00 0.00 31 1009.1
20260503233818 60 252 3.5 7.8 0.00 0.00 0.00 30 1008.9
20260503233528 60 282 3.5 8.7 0.00 0.00 0.00 31 1009.0
20260503232502 60 247 3.5 11.3 0.00 0.00 0.00 30 1008.9
20260503232002 60 248 3.5 11.3 0.00 0.00 0.00 31 1008.9
20260503231503 61 273 3.5 8.7 0.00 0.00 0.00 30 1008.8
20260503231003 61 271 4.3 10.4 0.00 0.00 0.00 29 1008.8
20260503230501 61 264 3.5 10.4 0.00 0.00 0.00 29 1008.7
20260503230002 61 205 3.5 12.2 0.00 0.00 0.00 29 1008.6
20260503225503 61 310 3.5 12.2 0.00 0.00 0.00 30 1008.6
20260503225003 61 246 4.3 11.3 0.00 0.00 0.00 30 1008.6
20260503224502 61 198 4.3 11.3 0.00 0.00 0.00 29 1008.6
20260503224001 61 277 3.5 9.6 0.00 0.00 0.00 29 1008.6
20260503223503 62 227 3.5 9.6 0.00 0.00 0.00 30 1008.5
20260503223002 62 302 4.3 9.6 0.00 0.00 0.00 30 1008.4
20260503222502 62 306 4.3 11.3 0.00 0.00 0.00 30 1008.4
20260503222003 62 234 4.3 12.2 0.00 0.00 0.00 29 1008.5
20260503221503 62 277 4.3 13.9 0.00 0.00 0.00 29 1008.5
20260503221001 62 275 4.3 13.9 0.00 0.00 0.00 30 1008.5
20260503220501 62 287 5.2 13.0 0.00 0.00 0.00 31 1008.5
20260503220001 62 311 5.2 11.3 0.00 0.00 0.00 30 1008.4
20260503215502 62 261 5.2 12.2 0.00 0.00 0.00 30 1008.6